TimeCST,TemperatureF,Dew PointF,Humidity,Sea Level PressureIn,VisibilityMPH,Wind Direction,Wind SpeedMPH,Gust SpeedMPH,PrecipitationIn,Events,Conditions,WindDirDegrees,DateUTC
12:53 AM,45.0,37.9,76,30.36,10.0,North,10.4,-,N/A,,Clear,10,2013-12-31 06:53:00
1:53 AM,43.0,36.0,76,30.37,10.0,North,10.4,-,N/A,,Clear,10,2013-12-31 07:53:00
2:53 AM,43.0,36.0,76,30.36,10.0,North,8.1,-,N/A,,Clear,10,2013-12-31 08:53:00
3:53 AM,42.1,36.0,79,30.36,10.0,NNE,8.1,-,N/A,,Clear,30,2013-12-31 09:53:00
4:53 AM,41.0,35.1,79,30.35,10.0,NNE,12.7,-,N/A,,Clear,30,2013-12-31 10:53:00
5:53 AM,41.0,34.0,76,30.38,10.0,NNE,12.7,-,N/A,,Clear,20,2013-12-31 11:53:00
6:53 AM,39.9,35.1,83,30.40,10.0,North,10.4,-,N/A,,Clear,360,2013-12-31 12:53:00
7:53 AM,39.9,34.0,79,30.40,10.0,NE,11.5,-,N/A,,Clear,40,2013-12-31 13:53:00
8:53 AM,39.9,35.1,83,30.41,10.0,NNE,12.7,-,N/A,,Clear,30,2013-12-31 14:53:00
9:53 AM,41.0,35.1,79,30.43,10.0,NNE,6.9,-,N/A,,Clear,30,2013-12-31 15:53:00
10:53 AM,41.0,35.1,79,30.42,10.0,Variable,4.6,-,N/A,,Clear,0,2013-12-31 16:53:00
11:53 AM,42.1,35.1,76,30.39,10.0,NE,4.6,-,N/A,,Clear,40,2013-12-31 17:53:00
12:53 PM,43.0,36.0,76,30.38,10.0,North,6.9,-,N/A,,Clear,360,2013-12-31 18:53:00
1:53 PM,44.1,36.0,73,30.36,10.0,North,5.8,-,N/A,,Clear,360,2013-12-31 19:53:00
2:53 PM,45.0,36.0,71,30.34,10.0,NNE,8.1,-,N/A,,Clear,20,2013-12-31 20:53:00
3:53 PM,46.0,36.0,68,30.35,10.0,ENE,3.5,-,N/A,,Clear,70,2013-12-31 21:53:00
4:53 PM,46.0,36.0,68,30.35,10.0,Calm,Calm,-,N/A,,Clear,0,2013-12-31 22:53:00
5:53 PM,46.0,37.0,71,30.36,10.0,Calm,Calm,-,N/A,,Scattered Clouds,0,2013-12-31 23:53:00
6:53 PM,45.0,37.9,76,30.36,10.0,Calm,Calm,-,0.00,,Overcast,0,2014-01-01 00:53:00
7:53 PM,44.1,39.0,82,30.37,10.0,Calm,Calm,-,0.01,Rain,Light Rain,0,2014-01-01 01:53:00
8:53 PM,44.1,39.0,82,30.38,10.0,Calm,Calm,-,0.00,,Overcast,0,2014-01-01 02:53:00
9:53 PM,44.1,39.0,82,30.36,10.0,Calm,Calm,-,N/A,,Overcast,0,2014-01-01 03:53:00
10:53 PM,44.1,39.0,82,30.33,10.0,Calm,Calm,-,N/A,,Overcast,0,2014-01-01 04:53:00
11:53 PM,44.1,39.0,82,30.30,10.0,SE,4.6,-,0.00,,Overcast,130,2014-01-01 05:53:00